CZ-4C DEB, 44616

Orbit data source: Space-Track

CZ-4C DEB, 44616 is space debris in SSO originally from a launch on Sat, 31 Mar 2018 UTC launched from the Taiyaun Space Center, China (TSC). Debris objects in space refer to the collection of defunct objects orbiting the Earth. Examples of debris include non-operational satellites, rocket bodies, and fragments generated from explosions, collisions, or faulty payload assembly.

Loading next visibility...
Identifier
44616, 2018-031K
Orbit
SSO
Country
Flag of CNCN / PRC
Related business
Manufacturer
Unknown
Mission
Spacecraft
Bus & Motor
Unknown
Mass
Unknown
Launch date (UTC)
2018-03-31 (8 years ago)
Launch vehicle
Unknown
Launch site
Taiyaun Space Center, China (TSC)
Object type
Payload
Rocket body
Debris
Shape & HBR
Unknown shape, 0.1 m
Radar Cross Section
Small (<0.1 m²)

Expand to show TLE details & history
Last TLE update: 12 hours ago

TLE from 12 hours ago
0 CZ-4C DEB
1 44616U 18031K   25300.48889696  .00006022  00000-0  57371-3 0  9998
2 44616  97.8138  21.4439 0004924 354.1091   6.0070 14.93738402391449
Epoch: 2025-10-27T11:44Z
TLE epoch observation values (Epoch: 2025-10-27T11:44:00.697Z)
Latitude
-0.00001°
Longitude
169.35098°
Altitude
585.923 km
Speed
7.569 km/s
True Right ascension
01h 25m 46s
True Declination
0° 00' 00"
Sunlit
Object was in full shadow at epoch
Visualization orbit readout
Latitude
Unknown
Longitude
Unknown
Altitude
Unknown
Speed
Unknown
Apparent Right ascension
Unknown
Apparent Declination
Unknown
Sunlit
N/A
Visualization observer readout
Local Sidereal Time
18:51:21
Azimuth
Unknown
Elevation
Unknown
Doppler factor
Unknown
Orbital elements
Apogee altitude
586.738 km
Perigee altitude
579.882 km
Semi-major axis
6,961.447 km
Eccentricity
0.00049
Inclination
97.8138°
RAAN
21.4439°
Arg. of periapsis
354.1091°
True anomaly
6.01291°
Mean anomaly
6.007°
Eccentric anomaly
6.00995°
Mean motion
3.73675 °/min
Orbital period
96.34 mins
BSTAR
0.00057371
Loading maneuver chart data...
Computing Atmospheric mass density...
Loading historical data...
Loading historical data...
Loading historical data...
Loading historical data...
Loading historical data...
Loading historical data...
Loading historical data...

Documentation

Showing up to 5 results
|